Regional Weather Roundup
Issued by NWS Midland/Odessa, TX

Skip options and go directly to product.
Home | Oldest Version | Previous Version | Current Version | All | Graphics & Text | Save Text | Print | Product List | Glossary On

Skip product version selection by date and time.   
164
ASUS44 KMAF 021502
RWRMAF
MIDLAND AREA WEATHER ROUNDUP
NATIONAL WEATHER SERVICE MIDLAND TX
1000 AM CDT TUE SEP 02 2014

...IN SOUTHWEST TEXAS AND SOUTHEAST NEW MEXICO...

CITY           SKY/WX    TMP DP  RH WIND       PRES   REMARKS
ALPINE         SUNNY     83  58  42 S3        30.14S
ANDREWS        FAIR      82  63  52 S13G20    29.98S
ARTESIA        NOT AVBL
BIG SPRING     SUNNY     82  66  59 S22       29.98F
CARLSBAD       SUNNY     80  59  48 SE5       29.97R
DRYDEN           N/A     85  70  60 SE13      29.95F
FORT STOCKTON  SUNNY     84  61  45 S12       29.97F
GUAD PASS      SUNNY     74  41  30 SW9       30.15R
HOBBS          SUNNY     79  57  47 S12       30.01S
MARFA          SUNNY     79  59  50 CALM      30.15R
MIDLAND AIRPK  NOT AVBL
MIDLAND INTL   SUNNY     83  67  58 S16       29.96S
ODESSA         SUNNY     83  65  54 S20       29.97F
PECOS          SUNNY     80  51  35 CALM      29.93S
PRESIDIO       NOT AVBL
SEMINOLE       SUNNY     82  61  49 S14       30.00S
SNYDER         SUNNY     80  69  69 S15G22    29.97S
WINK           SUNNY     84  62  47 SE13      29.94S
$$
...OTHER STATIONS IN TEXAS...

CITY           SKY/WX    TMP DP  RH WIND       PRES   REMARKS
ABILENE        SUNNY     82  69  64 SW17G26   29.95F
AMARILLO       MOSUNNY   74  64  71 NE8       30.03F
AUSTIN         PTSUNNY   83  74  74 S15       29.96S
BROWNSVILLE    LGT RAIN  85  77  77 SE17G25   29.90R
CORPUS CHRISTI MOSUNNY   87  77  72 SE14      29.93R
DALLAS FTW     MOSUNNY   83  72  69 S21       29.96S
DEL RIO        CLOUDY    82  72  71 SE12G20   29.93R
EL PASO        SUNNY     79  45  29 S7        30.02R
HOUSTON INT    PTSUNNY   88  75  66 S14       29.99R
LUBBOCK        MOSUNNY   82  60  47 SW15      29.99R
SAN ANGELO     MOSUNNY   81  68  64 S15G23    29.97S
SAN ANTONIO    MOSUNNY   84  73  69 S14       29.97S
WACO           PTSUNNY   85  74  69 S16       29.97S
WICHITA FALLS  NOT AVBL
$$
...OTHER LOCATIONS IN NEW MEXICO...

CITY           SKY/WX    TMP DP  RH WIND       PRES   REMARKS
ALAMAGORDO     SUNNY     77  37  24 SE3       30.06S
ALBUQUERQUE    MOSUNNY   72  38  29 N7        30.17R
CANNON AFB     SUNNY     73  62  68 NE14      30.08R
CLOVIS           N/A     72  61  68 N13       30.10S
HOLLOMAN AFB   SUNNY     78  39  25 SW1       30.04R
ROSWELL        SUNNY     75  47  36 N8        30.01R
RUIDOSO        SUNNY     75  36  23 SW7       30.27S
SANTA FE       SUNNY     68  33  27 N10       30.23R
TRUTH OR CONSE SUNNY     79  38  22 N7        30.10R
TUCUMCARI      CLOUDY    72  63  73 NE12      30.09R
$$

USA.gov is the U.S. government's official web portal to all federal, state and local government web resources and services.